Regional Weather Roundup
Issued by NWS

Home | Current Version | Previous Version | Graphics & Text | Print | Product List | Glossary On
Versions: 1 2 3 4 5 6 7 8 9 10 11 12 13 14 15 16 17 18 19 20 21 22 23 24 25 26 27 28 29 30 31 32 33 34 35 36 37 38 39 40 41 42 43 44 45 46 47 48 49 50
000
ASUS43 KBIS 020110
RWRND

NORTH DAKOTA REGIONAL WEATHER ROUNDUP
NATIONAL WEATHER SERVICE BISMARCK ND
800 PM CDT SUN MAY 01 2016

NOTE: "FAIR" INDICATES FEW OR NO CLOUDS BELOW 12,000 FEET WITH NO
SIGNIFICANT WEATHER AND/OR OBSTRUCTIONS TO VISIBILITY.


NDZ001>003-009>011-017-020200-
NORTHWEST NORTH DAKOTA

CITY           SKY/WX    TMP DP  RH WIND       PRES   REMARKS
WILLISTON      SUNNY     65  31  28 W3        30.14F
MINOT          CLEAR     65  24  21 NW3       30.13F
MINOT AFB      CLEAR     63  25  23 NW3       30.12F
$$

NDZ018>021-031>035-040>046-020200-
SOUTHWEST NORTH DAKOTA

CITY           SKY/WX    TMP DP  RH WIND       PRES   REMARKS
BISMARCK       CLEAR     62  29  28 N8        30.17F
DICKINSON      CLEAR     59  27  29 NW10      30.15F
GARRISON         N/A     61  25  25 E8        30.14F
HETTINGER ARPT CLEAR     61  27  27 N7        30.19F
$$

NDZ004>008-012>016-024-026-027-054-020200-
NORTHEAST NORTH DAKOTA

CITY           SKY/WX    TMP DP  RH WIND       PRES   REMARKS
GRAND FORKS    CLEAR     63  27  25 W3        30.13F
GRND FRKS AFB  CLEAR     62  24  23 N2        30.13F
DEVILS LAKE    CLEAR     60  29  30 W8        30.14F
$$

NDZ022-023-025-028>030-036>039-047>053-020200-
SOUTHEAST NORTH DAKOTA

CITY           SKY/WX    TMP DP  RH WIND       PRES   REMARKS
FARGO          CLEAR     64  27  24 N5        30.12F
JAMESTOWN      CLEAR     61  27  27 N3        30.14F
$$





USA.gov is the U.S. government's official web portal to all federal, state and local government web resources and services.